TRA45G LFRG-LFBE

Flight info

Callsign TRA45G
Flight time N/A
Altitude 31000
Route LGL A34 LMG/N0436F280 DCT BUGUS
Aircraft A321/M-SDE3FGHIRWY/LB1

Departure

Time N/A
Airport Deauville Normandie airport (LFRG)

Arrival

Time 2026-05-03 20:27
Airport Bergerac Dordogne-Périgord airport (LFBE)
Time Latitude Longitude Altitude Speed Heading
2026-05-03 20:15 44.63257 0.35093 3995 ft 212 kts 153°
2026-05-03 20:15 44.61950 0.36056 3995 ft 213 kts 152°
2026-05-03 20:15 44.60648 0.37041 3997 ft 212 kts 152°
2026-05-03 20:15 44.59348 0.38033 3994 ft 213 kts 152°
2026-05-03 20:16 44.58052 0.39027 3995 ft 212 kts 152°
2026-05-03 20:16 44.56759 0.40017 3995 ft 212 kts 152°
2026-05-03 20:16 44.55478 0.41035 3995 ft 211 kts 144°
2026-05-03 20:16 44.54601 0.42651 3993 ft 213 kts 110°
2026-05-03 20:17 44.54557 0.44728 3995 ft 220 kts 75°
2026-05-03 20:17 44.55192 0.46689 3993 ft 223 kts 63°
2026-05-03 20:17 44.55962 0.48549 3992 ft 223 kts 62°
2026-05-03 20:17 44.56756 0.50416 3996 ft 223 kts 62°
2026-05-03 20:18 44.57556 0.52282 3999 ft 223 kts 62°
2026-05-03 20:18 44.58378 0.54128 3998 ft 224 kts 56°
2026-05-03 20:18 44.59282 0.55913 4002 ft 224 kts 60°
2026-05-03 20:18 44.60097 0.57765 4002 ft 222 kts 61°
2026-05-03 20:19 44.60897 0.59624 4002 ft 223 kts 62°
2026-05-03 20:19 44.61746 0.61445 4001 ft 224 kts 55°
2026-05-03 20:19 44.62849 0.63010 4002 ft 226 kts 44°
2026-05-03 20:19 44.64053 0.64432 4004 ft 227 kts 42°
2026-05-03 20:20 44.65272 0.65841 4005 ft 227 kts 42°
2026-05-03 20:20 44.66494 0.67243 4002 ft 227 kts 42°
2026-05-03 20:20 44.67721 0.68647 4005 ft 227 kts 42°
2026-05-03 20:20 44.68948 0.70049 4008 ft 228 kts 41°
2026-05-03 20:21 44.70176 0.71452 4006 ft 227 kts 41°
2026-05-03 20:21 44.71420 0.72821 4006 ft 228 kts 37°
2026-05-03 20:21 44.72744 0.74079 3828 ft 231 kts 36°
2026-05-03 20:21 44.74059 0.75274 3665 ft 220 kts 36°
2026-05-03 20:22 44.75323 0.76410 3371 ft 216 kts 36°
2026-05-03 20:22 44.76574 0.77536 3180 ft 211 kts 36°
2026-05-03 20:22 44.77816 0.78628 3051 ft 211 kts 31°
2026-05-03 20:22 44.79263 0.78966 2927 ft 217 kts 351°
2026-05-03 20:23 44.80564 0.77968 2799 ft 216 kts 309°
2026-05-03 20:23 44.81131 0.76070 2680 ft 211 kts 273°
2026-05-03 20:23 44.81247 0.74011 2556 ft 210 kts 270°
2026-05-03 20:23 44.81350 0.72015 2434 ft 196 kts 270°
2026-05-03 20:24 44.81449 0.70207 2309 ft 176 kts 270°
2026-05-03 20:24 44.81540 0.68559 2207 ft 164 kts 269°
2026-05-03 20:24 44.81626 0.66995 2118 ft 156 kts 270°
2026-05-03 20:24 44.81709 0.65485 1944 ft 153 kts 270°
2026-05-03 20:25 44.81791 0.64002 1762 ft 152 kts 270°
2026-05-03 20:25 44.81872 0.62525 1561 ft 150 kts 270°
2026-05-03 20:25 44.81952 0.61070 1358 ft 148 kts 271°
2026-05-03 20:25 44.82031 0.59630 1164 ft 147 kts 272°
2026-05-03 20:26 44.82108 0.58204 955 ft 145 kts 273°
2026-05-03 20:26 44.82183 0.56818 777 ft 144 kts 274°
2026-05-03 20:26 44.82266 0.55400 568 ft 143 kts 274°
2026-05-03 20:26 44.82346 0.54024 329 ft 143 kts 270°
2026-05-03 20:27 44.82409 0.52630 174 ft 135 kts 274°
2026-05-03 20:27 44.82466 0.51572 176 ft 78 kts 274°
2026-05-03 20:27 44.82497 0.51047 178 ft 36 kts 274°
2026-05-03 20:27 44.82510 0.50816 179 ft 20 kts 275°
2026-05-03 20:28 44.82511 0.50692 179 ft 11 kts 249°
2026-05-03 20:28 44.82448 0.50660 179 ft 9 kts 185°
2026-05-03 20:28 44.82384 0.50658 179 ft 9 kts 177°
2026-05-03 20:28 44.82354 0.50713 179 ft 8 kts 97°
2026-05-03 20:29 44.82348 0.50788 178 ft 8 kts 96°
2026-05-03 20:29 44.82344 0.50862 178 ft 8 kts 92°
2026-05-03 20:29 44.82341 0.50936 178 ft 7 kts 94°
2026-05-03 20:29 44.82338 0.51007 178 ft 7 kts 94°
2026-05-03 20:30 44.82334 0.51076 178 ft 7 kts 94°
2026-05-03 20:30 44.82331 0.51141 178 ft 7 kts 94°
2026-05-03 20:30 44.82327 0.51209 178 ft 7 kts 94°
2026-05-03 20:30 44.82323 0.51278 177 ft 8 kts 94°
2026-05-03 20:31 44.82319 0.51357 177 ft 8 kts 95°
2026-05-03 20:31 44.82313 0.51439 177 ft 8 kts 94°
2026-05-03 20:31 44.82309 0.51524 177 ft 10 kts 94°
2026-05-03 20:31 44.82305 0.51627 177 ft 11 kts 92°
2026-05-03 20:32 44.82266 0.51699 177 ft 9 kts 181°
2026-05-03 20:32 44.82249 0.51659 177 ft 3 kts 280°
2026-05-03 20:32 44.82259 0.51634 177 ft 2 kts 305°
2026-05-03 20:32 44.82267 0.51621 177 ft 0 kts 310°